DW4098 Weather Reports


time (UTC)temp
C
wind
direction
speed
KPH
gust
KPH
rain 1hr
cm
rain 24hr
cm
rain mn
cm
humidity
%
barometer
mb
20260831040026 23 105 3.2 8.0 0.00 0.00 0.00 37 1029.6
20260831035005 0 315 41.8 38.6 0.00 0.00 0.00 1 1032.5
20260831034005 0 315 41.8 38.6 0.00 0.00 0.00 1 1033.5
20260831033026 22 98 1.6 6.4 0.00 0.00 0.00 47 1029.9
20260831032005 23 119 4.8 12.9 0.00 0.00 0.00 44 1030.1
20260831031005 22 111 1.6 4.8 0.00 0.00 0.00 47 1030.2
20260831030005 0 315 41.8 38.6 0.00 0.00 0.00 1 1034.5
20260831025005 22 123 3.2 11.3 0.00 0.00 0.00 48 1030.6
20260831024005 0 315 41.8 38.6 0.00 0.00 0.00 1 1034.5
20260831023005 0 315 41.8 38.6 0.00 0.00 0.00 1 1033.5
20260831022005 0 315 41.8 38.6 0.00 0.00 0.00 1 1033.5
20260831021005 0 315 41.8 38.6 0.00 0.00 0.00 1 1034.5
20260831020026 22 147 4.8 12.9 0.00 0.00 0.00 53 1031.3
20260831015005 21 124 4.8 11.3 0.00 0.00 0.00 54 1031.7
20260831014005 0 315 41.8 38.6 0.00 0.00 0.00 1 1034.5
20260831013005 21 144 3.2 8.0 0.00 0.00 0.00 58 1031.9
20260831012005 20 8 1.6 6.4 0.00 0.00 0.00 57 1031.9
20260831011005 0 315 41.8 38.6 0.00 0.00 0.00 1 1035.5
20260831010004 20 60 3.2 6.4 0.00 0.00 0.00 64 1032.2
20260831005004 0 315 41.8 38.6 0.00 0.00 0.00 1 1035.5
20260831004005 18 53 3.2 6.4 0.00 0.00 0.00 66 1032.3
20260831003005 0 315 41.8 38.6 0.00 0.00 0.00 1 1035.5
20260831002004 0 315 41.8 38.6 0.00 0.00 0.00 1 1035.5
20260831001005 0 315 41.8 38.6 0.00 0.00 0.00 1 1036.5
20260831000005 16 351 1.6 8.0 0.00 0.00 0.00 72 1032.6
20260830235004 16 360 3.2 6.4 0.00 0.00 0.00 74 1032.5
20260830234005 0 315 41.8 38.6 0.00 0.00 0.00 1 1035.5
20260830233004 0 315 41.8 38.6 0.00 0.00 0.00 1 1035.5
20260830232004 15 132 0.0 3.2 0.00 0.00 0.00 78 1032.8
20260830231005 0 315 41.8 38.6 0.00 0.00 0.00 1 1035.5
20260830230004 14 144 1.6 6.4 0.00 0.00 0.00 80 1032.8
20260830225004 0 315 41.8 38.6 0.00 0.00 0.00 1 1035.5
20260830224005 13 140 1.6 4.8 0.00 0.00 0.00 85 1032.6
20260830223004 12 152 0.0 3.2 0.00 0.00 0.00 85 1032.7
20260830222004 11 151 1.6 3.2 0.00 0.00 0.00 88 1032.6
20260830221004 11 148 0.0 3.2 0.00 0.00 0.00 88 1032.6
20260830220004 0 315 41.8 38.6 0.00 0.00 0.00 1 1034.5
20260830215004 9 0 0.0 0.0 0.00 0.00 0.00 90 1032.3
20260830214005 0 315 41.8 38.6 0.00 0.00 0.00 1 1034.5
20260830213004 7 0 0.0 0.0 0.00 0.00 0.00 92 1032.2
20260830212025 0 315 41.8 38.6 0.00 0.00 0.00 1 1034.5
20260830211025 0 315 41.8 38.6 0.00 0.00 0.00 1 1034.5
20260830210004 0 315 41.8 38.6 0.00 0.00 0.00 1 1034.5
20260830205004 6 0 0.0 0.0 0.00 0.00 0.00 93 1031.9
20260830204004 0 315 41.8 38.6 0.00 0.00 0.00 1 1033.5
20260830203004 0 315 41.8 38.6 0.00 0.00 0.00 1 1034.5
20260830202004 0 315 41.8 38.6 0.00 0.00 0.00 1 1034.5
20260830201004 6 0 0.0 0.0 0.00 0.00 0.00 93 1031.6
20260830200004 0 315 41.8 38.6 0.00 0.00 0.00 1 1033.5
20260830195004 6 360 0.0 0.0 0.00 0.00 0.00 93 1031.6
20260830194004 6 257 0.0 1.6 0.00 0.00 0.00 93 1031.5
20260830193004 6 0 0.0 0.0 0.00 0.00 0.00 93 1031.4
20260830192004 6 0 0.0 0.0 0.00 0.00 0.00 92 1031.3
20260830191004 6 0 0.0 0.0 0.00 0.00 0.00 93 1031.2
20260830190004 6 0 0.0 0.0 0.00 0.00 0.00 93 1031.3
20260830185004 0 315 41.8 38.6 0.00 0.00 0.00 1 1033.5
20260830184004 6 0 0.0 0.0 0.00 0.00 0.00 93 1031.1
20260830183004 6 0 0.0 0.0 0.00 0.00 0.00 93 1031.1
20260830182004 7 0 0.0 0.0 0.00 0.00 0.00 93 1031.0
20260830181025 0 315 41.8 38.6 0.00 0.00 0.00 1 1033.5
20260830180004 0 315 41.8 38.6 0.00 0.00 0.00 1 1032.5
20260830175004 7 0 0.0 0.0 0.00 0.00 0.00 92 1030.9
20260830174004 0 315 41.8 38.6 0.00 0.00 0.00 1 1033.5
20260830173004 7 0 0.0 0.0 0.00 0.00 0.00 92 1031.0
20260830172004 0 315 41.8 38.6 0.00 0.00 0.00 1 1033.5
20260830171025 0 315 41.8 38.6 0.00 0.00 0.00 1 1032.5
20260830170004 8 0 0.0 0.0 0.00 0.00 0.00 91 1030.8
20260830165004 8 0 0.0 0.0 0.00 0.00 0.00 91 1030.8
20260830164005 8 0 0.0 0.0 0.00 0.00 0.00 90 1031.0
20260830163004 0 315 41.8 38.6 0.00 0.00 0.00 1 1033.5
20260830162004 8 0 0.0 0.0 0.00 0.00 0.00 91 1030.9
20260830161004 0 315 41.8 38.6 0.00 0.00 0.00 1 1033.5
20260830160004 8 0 0.0 0.0 0.00 0.00 0.00 90 1031.1
20260830155003 8 0 0.0 0.0 0.00 0.00 0.00 90 1031.3
20260830154004 0 315 41.8 38.6 0.00 0.00 0.00 1 1033.5
20260830153004 9 0 0.0 0.0 0.00 0.00 0.00 90 1031.3
20260830152004 0 315 41.8 38.6 0.00 0.00 0.00 1 1033.5
20260830151003 0 315 41.8 38.6 0.00 0.00 0.00 1 1033.5
20260830150004 0 315 41.8 38.6 0.00 0.00 0.00 1 1033.5
20260830145004 0 315 41.8 38.6 0.00 0.00 0.00 1 1033.5
20260830144004 0 315 41.8 38.6 0.00 0.00 0.00 1 1033.5
20260830143004 10 0 0.0 0.0 0.00 0.00 0.00 90 1031.7
20260830142003 0 315 41.8 38.6 0.00 0.00 0.00 1 1033.5
20260830141003 0 315 41.8 38.6 0.00 0.00 0.00 1 1033.5
20260830140026 0 315 41.8 38.6 0.00 0.00 0.00 1 1033.5
20260830135003 0 315 41.8 38.6 0.00 0.00 0.00 1 1033.5
20260830134004 10 0 0.0 0.0 0.00 0.00 0.00 89 1031.4
20260830133003 0 315 41.8 38.6 0.00 0.00 0.00 1 1033.5
20260830132003 11 0 0.0 0.0 0.00 0.00 0.00 89 1031.2
20260830131003 11 302 0.0 0.0 0.00 0.00 0.00 88 1031.1
20260830130003 11 302 1.6 3.2 0.00 0.00 0.00 88 1031.1
20260830125003 11 302 0.0 3.2 0.00 0.00 0.00 88 1031.2
20260830124003 0 315 41.8 38.6 0.00 0.00 0.00 1 1033.5
20260830123024 0 315 41.8 38.6 0.00 0.00 0.00 1 1033.5
20260830122003 12 0 0.0 0.0 0.00 0.00 0.00 85 1031.1
20260830121003 12 0 0.0 0.0 0.00 0.00 0.00 85 1031.1
20260830120003 13 0 0.0 0.0 0.00 0.00 0.00 85 1031.1
20260830115006 0 315 41.8 38.6 0.00 0.00 0.00 1 1033.5
20260830114027 13 0 0.0 0.0 0.00 0.00 0.00 83 1031.2
20260830113006 0 315 41.8 38.6 0.00 0.00 0.00 1 1034.5
20260830112006 14 0 0.0 0.0 0.00 0.00 0.00 83 1031.1
20260830111006 0 315 41.8 38.6 0.00 0.00 0.00 1 1033.5
20260830110006 0 315 41.8 38.6 0.00 0.00 0.00 1 1033.5
20260830105006 14 0 0.0 0.0 0.00 0.00 0.00 81 1031.1
20260830104006 15 0 0.0 0.0 0.00 0.00 0.00 80 1031.2
20260830103006 0 315 41.8 38.6 0.00 0.00 0.00 1 1033.5
20260830102006 15 0 0.0 0.0 0.00 0.00 0.00 79 1031.1
20260830101027 0 315 41.8 38.6 0.00 0.00 0.00 1 1033.5
20260830100006 0 315 41.8 38.6 0.00 0.00 0.00 1 1033.5
20260830095006 15 137 0.0 3.2 0.00 0.00 0.00 74 1030.7
20260830094006 15 139 1.6 6.4 0.00 0.00 0.00 72 1030.6
20260830093006 0 315 41.8 38.6 0.00 0.00 0.00 1 1032.5
20260830092005 15 204 1.6 6.4 0.00 0.00 0.00 71 1030.4
20260830091006 0 315 41.8 38.6 0.00 0.00 0.00 1 1032.5
20260830090006 0 315 41.8 38.6 0.00 0.00 0.00 1 1032.5
20260830085006 0 315 41.8 38.6 0.00 0.00 0.00 1 1032.5
20260830084017 0 315 41.8 38.6 0.00 0.00 0.00 1 1031.5
20260830084015 17 0 0.0 0.0 0.00 0.00 0.00 66 1029.8
20260830083006 17 0 0.0 0.0 0.00 0.00 0.00 64 1029.6
20260830082005 0 315 41.8 38.6 0.00 0.00 0.00 1 1032.5
20260830081005 18 114 0.0 3.2 0.00 0.00 0.00 60 1029.5
20260830080027 18 109 1.6 4.8 0.00 0.00 0.00 59 1029.4
20260830075006 19 104 0.0 0.0 0.00 0.00 0.00 58 1029.4
20260830074005 19 108 1.6 4.8 0.00 0.00 0.00 58 1029.4
20260830073006 0 315 41.8 38.6 0.00 0.00 0.00 1 1032.5
20260830072027 20 116 3.2 6.4 0.00 0.00 0.00 54 1029.2
20260830071005 0 315 41.8 38.6 0.00 0.00 0.00 1 1032.5
20260830070006 21 111 3.2 8.0 0.00 0.00 0.00 52 1029.1
20260830065006 22 111 4.8 12.9 0.00 0.00 0.00 51 1029.1
20260830064005 0 315 41.8 38.6 0.00 0.00 0.00 1 1032.5
20260830063005 0 315 41.8 38.6 0.00 0.00 0.00 1 1032.5
20260830062005 22 140 1.6 4.8 0.00 0.00 0.00 46 1029.0
20260830061027 0 315 41.8 38.6 0.00 0.00 0.00 1 1032.5
20260830060005 22 140 3.2 6.4 0.00 0.00 0.00 49 1029.2
20260830055005 22 125 3.2 8.0 0.00 0.00 0.00 49 1029.1
20260830054005 23 154 3.2 8.0 0.00 0.00 0.00 47 1029.2
20260830053006 23 157 4.8 11.3 0.00 0.00 0.00 47 1029.2
20260830052026 23 178 3.2 6.4 0.00 0.00 0.00 48 1029.3
20260830051005 0 315 41.8 38.6 0.00 0.00 0.00 1 1032.5
20260830050005 23 123 4.8 8.0 0.00 0.00 0.00 47 1029.3
20260830045026 23 145 4.8 9.7 0.00 0.00 0.00 48 1029.3
20260830044005 23 168 3.2 8.0 0.00 0.00 0.00 47 1029.3
20260830043026 0 315 41.8 38.6 0.00 0.00 0.00 1 1032.5
20260830042005 0 315 41.8 38.6 0.00 0.00 0.00 1 1032.5
20260830041005 0 315 41.8 38.6 0.00 0.00 0.00 1 1032.5